Flag for Central African Republic Weather past 2 weeks in Bimbo, Central African Republic

Now
73 °F

Clear.


Feels Like: 70 °F
Forecast: 73 / 80 °F
Wind: 2 mph from North

Location: Bangui Airport

Current Time: Sep 2, 2014 at 3:16:52 AM

Latest Report: Sep 2, 2014 at 2:00 AM


Visibility: 10 mi

Pressure: 29.89 "Hg

Humidity: 94%

Dew point: 72 °F

Location of BimboLocation

Historic Weather in Bimbo — Graph

°F

Bimbo temperature yesterday

Maximum temperature yesterday: 84 °F (at 3:00 PM)
Minimum temperature yesterday: 72 °F (at 5:00 AM)
Average temperature yesterday: 76 °F

Past Weeks' High & Low Weather Summary

 TemperatureHumidityPressure
High91 °F (Aug 26, 3:00 PM)100% (Aug 18, 5:00 AM)30.04 "Hg (Aug 18, 5:00 AM)
Low70 °F (Aug 24, 12:00 AM)52% (Aug 26, 1:00 PM)29.77 "Hg (Aug 28, 4:00 PM)
Average77 °F86%29.90 "Hg
* Reported Aug 18 2:00 AM — Sep 2 1:00 AM, Bimbo, Weather by CustomWeather, © 2014

Note: Actual official high and low records may vary slightly from our data, if they occured in-between our weather recording intervals... More about our weather records

Advertising

Bimbo weather history for previous 24 hours

 ConditionsComfort  
Time TempWeatherWind HumidityBarometerVisibility
1:00 AM
Sep 2
73 °FClear.2 mph94%29.92 "Hg10 mi
12:00 AM73 °FClear.No wind94%29.92 "Hg10 mi
11:00 PM
Sep 1
73 °FClear.5 mph100%29.92 "Hg10 mi
10:00 PM73 °FThunderstorms. Passing clouds.5 mph94%29.95 "Hg4 mi
9:00 PM73 °FThunderstorms. Passing clouds.5 mph94%29.92 "Hg4 mi
8:00 PM75 °FThunderstorms. Passing clouds.5 mph89%29.89 "HgN/A
7:00 PM75 °FThunderstorms. Passing clouds.5 mph89%29.86 "HgN/A
6:00 PM79 °FPassing clouds.5 mph84%29.83 "HgN/A
5:00 PM84 °FScattered clouds.6 mph66%29.83 "HgN/A
4:00 PM84 °FBroken clouds.5 mph62%29.83 "HgN/A
3:00 PM84 °FPartly sunny.7 mph62%29.83 "HgN/A
2:00 PM82 °FPartly sunny.5 mph66%29.86 "HgN/A
1:00 PM81 °FPartly sunny.2 mph70%29.89 "HgN/A
12:00 PM79 °FPartly sunny.No wind74%29.92 "HgN/A
11:00 AM77 °FPartly sunny.1 mph79%29.95 "HgN/A
10:00 AM73 °FOvercast.1 mph89%29.98 "HgN/A
9:00 AM72 °FLow clouds.2 mph94%29.98 "HgN/A
8:00 AM72 °FThunderstorms. More clouds than sun.1 mph94%30.01 "HgN/A
7:00 AM72 °FThunderstorms. More clouds than sun.7 mph88%30.01 "HgN/A
6:00 AM72 °FThunderstorms. More clouds than sun.2 mph94%29.95 "HgN/A
5:00 AM72 °FPassing clouds.5 mph94%29.92 "HgN/A
4:00 AM73 °FClear.3 mph94%29.89 "Hg10 mi
3:00 AM73 °FClear.No wind100%29.89 "Hg10 mi
Weather by CustomWeather, © 2014

See weather overviewHow to use our weather pages